McGuire AFB, NJ

6:36 PM EDT on April 23, 2017 (GMT -0400)
McGuire Air Force Base

Weather History for KWRI - May, 2014

Change the Weather History Date:

Thursday, May 1, 2014

  Actual Average Record
Temperature  
Mean Temperature 68 °F -  
Max Temperature 77 °F 67 °F 89 °F (2001)
Min Temperature 59 °F 45 °F 36 °F (2008)
Cooling Degree Days 3    
Growing Degree Days 18 (Base 50)    
Moisture  
Dew Point 61 °F    
Average Humidity 91    
Maximum Humidity 100    
Minimum Humidity 43    
Precipitation  
Precipitation 0.15 in - - ()
Sea Level Pressure  
Sea Level Pressure 29.79 in    
Wind  
Wind Speed 12 mph (SSW)    
Max Wind Speed 21 mph    
Max Gust Speed 30 mph    
Visibility 8 miles    
Events Rain    
Averages and records for this station are not official NWS values.
T = Trace of Precipitation, MM = Missing Value Source: NWS Daily Summary

Daily Weather History Graph

Daily Weather History Graph

Search for Another Location

Airport or City:

Trip Planner

Search our weather history database for the weather conditions in past years. The results will help you decide how hot, cold, wet, or windy it might be!

Date:

Astronomy

May. 01, 2014 Rise Set
Actual Time 5:58 AM EDT 7:53 PM EDT
Civil Twilight 5:29 AM EDT 8:22 PM EDT
Nautical Twilight 4:53 AM EDT 8:58 PM EDT
Astronomical Twilight 4:15 AM EDT 9:37 PM EDT
Moon 7:44 AM EDT (5/1) 10:24 PM EDT (5/1)
Length of Visible Light 14h 53m
Length of Day
13h 54m
Waxing Crescent, 6% of the Moon is Illuminated
May 1
Waxing Crescent
May 6
First Quarter
May 14
Full
May 21
Last Quarter
May 28
New

Hourly Weather History & Observations

Time (EDT) Temp. Dew Point Humidity Pressure Visibility Wind Dir Wind Speed Gust Speed Precip Events Conditions
12:07 AM 60.8 °F 60.8 °F 100% 29.90 in 10.0 mi South 15.0 mph - N/A   Overcast
12:16 AM 60.8 °F 60.8 °F 100% 29.90 in 10.0 mi SSE 13.8 mph - N/A   Overcast
12:28 AM 60.8 °F 60.8 °F 100% 29.89 in 10.0 mi South 12.7 mph - N/A   Overcast
12:34 AM 60.8 °F 60.8 °F 100% 29.89 in 10.0 mi SSE 13.8 mph - N/A Rain Light Rain
12:37 AM 60.8 °F 60.8 °F 100% 29.89 in 9.0 mi SSE 13.8 mph - N/A Rain Light Rain
12:40 AM 60.8 °F 60.8 °F 100% 29.89 in 9.0 mi SSE 15.0 mph - N/A Rain Light Rain
12:49 AM 60.8 °F 60.8 °F 100% 29.89 in 10.0 mi SSE 11.5 mph - N/A Rain Light Rain
12:58 AM 60.8 °F 60.8 °F 100% 29.89 in 10.0 mi SSE 16.1 mph 24.2 mph 0.01 in Rain Light Rain
1:00 AM 60.8 °F 60.8 °F 100% 29.88 in 10.0 mi SSE 15.0 mph 24.2 mph N/A   Overcast
1:06 AM 60.8 °F 60.8 °F 100% 29.87 in 10.0 mi SSE 12.7 mph 21.9 mph N/A   Overcast
1:09 AM 60.8 °F 60.8 °F 100% 29.87 in 10.0 mi SSE 12.7 mph 21.9 mph N/A   Overcast
1:21 AM 60.8 °F 60.8 °F 100% 29.87 in 9.0 mi SSE 16.1 mph 21.9 mph N/A   Overcast
1:30 AM 60.8 °F 60.8 °F 100% 29.86 in 6.0 mi SSE 17.3 mph 26.5 mph N/A   Overcast
1:58 AM 60.6 °F 60.6 °F 100% 29.86 in 6.0 mi South 10.4 mph 19.6 mph 0.00 in   Overcast
2:19 AM 60.8 °F 60.8 °F 100% 29.83 in 7.0 mi SSE 13.8 mph - N/A   Overcast
2:22 AM 60.8 °F 60.8 °F 100% 29.83 in 7.0 mi SSE 11.5 mph - N/A   Overcast
2:46 AM 60.8 °F 60.8 °F 100% 29.82 in 5.0 mi South 11.5 mph - N/A   Overcast
2:52 AM 60.8 °F 60.8 °F 100% 29.82 in 4.0 mi South 10.4 mph - N/A   Overcast
2:55 AM 60.8 °F 60.8 °F 100% 29.82 in 4.0 mi SSE 11.5 mph - N/A   Overcast
2:58 AM 61.2 °F 61.2 °F 100% 29.82 in 4.0 mi South 10.4 mph - N/A   Overcast
3:25 AM 60.8 °F 60.8 °F 100% 29.81 in 3.0 mi South 12.7 mph - N/A   Overcast
3:28 AM 60.8 °F 60.8 °F 100% 29.81 in 3.0 mi South 12.7 mph 19.6 mph N/A   Overcast
3:43 AM 60.8 °F 60.8 °F 100% 29.81 in 4.0 mi South 13.8 mph 21.9 mph N/A   Overcast
3:52 AM 60.8 °F 60.8 °F 100% 29.81 in 4.0 mi South 12.7 mph 21.9 mph N/A   Overcast
3:55 AM 60.8 °F 60.8 °F 100% 29.81 in 4.0 mi South 12.7 mph - N/A   Overcast
3:58 AM 61.5 °F 61.5 °F 100% 29.82 in 4.0 mi South 12.7 mph - N/A   Overcast
4:22 AM 60.8 °F 60.8 °F 100% 29.80 in 3.0 mi South 13.8 mph - N/A   Overcast
4:34 AM 60.8 °F 60.8 °F 100% 29.80 in 3.0 mi South 11.5 mph - N/A   Overcast
4:58 AM 61.7 °F 61.7 °F 100% 29.81 in 3.0 mi South 12.7 mph - N/A   Overcast
5:10 AM 62.6 °F 62.6 °F 100% 29.79 in 4.0 mi South 11.5 mph - N/A   Overcast
5:25 AM 62.6 °F 62.6 °F 100% 29.79 in 5.0 mi South 10.4 mph - N/A   Overcast
5:49 AM 62.6 °F 62.6 °F 100% 29.80 in 7.0 mi South 11.5 mph - N/A   Overcast
5:58 AM 62.6 °F 62.6 °F 100% 29.81 in 7.0 mi South 11.5 mph - N/A   Overcast
6:01 AM 62.6 °F 62.6 °F 100% 29.80 in 6.0 mi South 9.2 mph - N/A   Overcast
6:09 AM 62.6 °F 62.6 °F 100% 29.80 in 5.0 mi South 10.4 mph - N/A Rain Light Rain
6:30 AM 62.6 °F 62.6 °F 100% 29.80 in 5.0 mi South 9.2 mph - N/A   Overcast
6:58 AM 63.0 °F 63.0 °F 100% 29.81 in 5.0 mi South 8.1 mph - 0.00 in   Overcast
7:16 AM 62.6 °F 62.6 °F 100% 29.80 in 7.0 mi South 8.1 mph - N/A   Overcast
7:25 AM 64.4 °F 64.4 °F 100% 29.79 in 9.0 mi SSE 9.2 mph - N/A   Overcast
7:34 AM 64.4 °F 64.4 °F 100% 29.79 in 9.0 mi SSE 9.2 mph - N/A   Overcast
7:58 AM 64.6 °F 64.4 °F 99% 29.80 in 10.0 mi SSW 8.1 mph - N/A   Overcast
8:28 AM 66.2 °F 66.2 °F 100% 29.79 in 10.0 mi SSW 9.2 mph - N/A   Mostly Cloudy
8:58 AM 66.2 °F 66.2 °F 100% 29.79 in 10.0 mi SW 9.2 mph - N/A   Mostly Cloudy
9:33 AM 66.2 °F 66.2 °F 100% 29.80 in 10.0 mi West 10.4 mph - N/A Rain Light Rain
9:42 AM 66.2 °F 66.2 °F 100% 29.80 in 10.0 mi West 10.4 mph - N/A Rain Light Rain
9:53 AM 66.2 °F 66.2 °F 100% 29.80 in 10.0 mi West 9.2 mph - N/A   Overcast
9:58 AM 66.2 °F 66.2 °F 100% 29.81 in 10.0 mi West 13.8 mph - 0.00 in   Overcast
10:04 AM 66.2 °F 66.2 °F 100% 29.81 in 10.0 mi West 11.5 mph - N/A   Overcast
10:07 AM 66.2 °F 66.2 °F 100% 29.81 in 10.0 mi West 10.4 mph - N/A   Overcast
10:22 AM 66.2 °F 66.2 °F 100% 29.80 in 10.0 mi West 10.4 mph - N/A   Overcast
10:37 AM 68.0 °F 64.4 °F 88% 29.80 in 10.0 mi WNW 12.7 mph - N/A   Overcast
10:55 AM 66.2 °F 62.6 °F 88% 29.80 in 10.0 mi West 9.2 mph - N/A   Overcast
10:58 AM 66.2 °F 62.6 °F 88% 29.81 in 10.0 mi WNW 8.1 mph - N/A   Overcast
11:07 AM 68.0 °F 62.6 °F 83% 29.80 in 10.0 mi West 8.1 mph - N/A   Mostly Cloudy
11:58 AM 70.3 °F 59.2 °F 68% 29.79 in 10.0 mi West 9.2 mph - N/A   Partly Cloudy
12:58 PM 72.1 °F 59.4 °F 64% 29.77 in 10.0 mi WNW 6.9 mph - N/A   Partly Cloudy
1:58 PM 75.0 °F 58.6 °F 57% 29.76 in 10.0 mi West 5.8 mph - N/A   Mostly Cloudy
2:58 PM 74.8 °F 55.6 °F 51% 29.74 in 10.0 mi WSW 9.2 mph - N/A   Mostly Cloudy
3:58 PM 75.7 °F 51.4 °F 43% 29.72 in 10.0 mi West 8.1 mph - N/A   Mostly Cloudy
4:58 PM 76.6 °F 52.5 °F 43% 29.71 in 10.0 mi SW 12.7 mph 17.3 mph N/A   Clear
5:58 PM 76.6 °F 54.0 °F 45% 29.69 in 10.0 mi WSW 5.8 mph - N/A   Clear
6:58 PM 73.2 °F 52.2 °F 48% 29.69 in 10.0 mi WSW 9.2 mph - N/A   Clear
7:54 PM 69.8 °F 55.4 °F 60% 29.68 in 10.0 mi SSW 6.9 mph - N/A Rain Light Rain
7:58 PM 69.1 °F 56.3 °F 64% 29.69 in 10.0 mi SSW 6.9 mph - 0.00 in Rain Light Rain
8:01 PM 69.8 °F 55.4 °F 60% 29.68 in 10.0 mi SSW 6.9 mph - N/A   Clear
8:58 PM 65.1 °F 56.5 °F 74% 29.70 in 10.0 mi South 3.5 mph - 0.00 in   Clear
9:58 PM 64.2 °F 58.8 °F 83% 29.70 in 10.0 mi West 2.3 mph - N/A   Mostly Cloudy
10:12 PM 64.4 °F 59.0 °F 83% 29.73 in 10.0 mi NW 20.7 mph 29.9 mph N/A Rain Light Rain
10:15 PM 64.4 °F 59.0 °F 83% 29.72 in 7.0 mi WNW 16.1 mph 29.9 mph N/A Rain Light Rain
10:16 PM 64.4 °F 59.0 °F 83% 29.73 in 6.0 mi WNW 17.3 mph 29.9 mph N/A Rain Heavy Rain
10:19 PM 62.6 °F 59.0 °F 88% 29.73 in 3.0 mi WNW 11.5 mph 29.9 mph N/A Rain Heavy Rain
10:22 PM 62.6 °F 59.0 °F 88% 29.73 in 2.5 mi NW 10.4 mph 29.9 mph N/A Rain Light Rain
10:25 PM 62.6 °F 59.0 °F 88% 29.73 in 3.0 mi NW 9.2 mph 19.6 mph N/A Rain Light Rain
10:28 PM 60.8 °F 60.8 °F 100% 29.72 in 7.0 mi NW 9.2 mph 19.6 mph N/A Rain Light Rain
10:31 PM 60.8 °F 60.8 °F 100% 29.72 in 10.0 mi NW 9.2 mph 19.6 mph N/A Rain Light Rain
10:35 PM 60.8 °F 60.8 °F 100% 29.72 in 10.0 mi NNW 5.8 mph - N/A   Overcast
10:44 PM 60.8 °F 60.8 °F 100% 29.72 in 10.0 mi Variable 5.8 mph - N/A Rain Light Rain
10:58 PM 60.8 °F 60.6 °F 99% 29.72 in 10.0 mi NNW 5.8 mph - 0.14 in Rain Light Rain
11:07 PM 60.8 °F 60.8 °F 100% 29.72 in 10.0 mi NW 4.6 mph - N/A   Overcast
11:58 PM 59.2 °F 58.8 °F 99% 29.72 in 10.0 mi Variable 3.5 mph - 0.00 in   Mostly Cloudy